Weather in Kanash

Russia / Chuvash Republic     55°50′31″N   46°13′34″E
temp.,
°C
wind,
m/s
gust,
m/s
humid.,
%
clouds,
%
prec.,
mm/h
press.,
hPa
HPBL,
m
24 may, tue
tue2400:00+1wsw349699 0.3 1001116
03:00+1wsw3996100 0.4 1002382
06:00+2wsw3799100 0.8 1002331
09:00+2w469386 0.9 1004582
12:00+5wsw5681100 0.4 10051010
15:00+6wsw4576100 0.9 10061068
18:00+5w2380100 0.4 1007582
21:00+3wnw1185100 0.8 100810
25 may, wed
wed2500:00+1nne119095 0.0 100810
03:000nw229297 0.0 100918
06:00+2nw368982 0.0 1010262
09:00+6nnw567883 0.1 1010972
12:00+9nw676282 0.7 10101660
15:00+9nw6765100 1.7 10111400
18:00+7nw588099 1.3 1011744
21:00+3w489316 1.4 1012135
26 may, thu
thu2600:00+2w389619 0.0 1013145
03:00+3wsw3795100 0.0 1012166
06:00+4wsw4890100 0.0 1012343
09:00+8wsw566878 0.1 10121183
12:00+9sw576677 0.2 10111371
15:00+10sw7874100 1.0 10101250
18:00+11wsw377598 0.3 1008458
21:00+8ssw41289100 0.6 1008297
27 may, fri
fri2700:00+9ssw61492100 2.8 1005498
03:00+9s51298100 5.0 1003448
06:00+10s81696100 4.8 1000925
09:00+10sw61297100 8.8 999633
12:00+15wsw7107795 1.6 10001360
15:00+13wsw798390 3.4 1001872
18:00+13wsw5108596 0.6 1002860
21:00+9wsw512955 0.9 1004386
28 may, sat
sat2800:00+8wsw4109859 0.0 1006249
03:00+6ssw3596100 0.0 100784
06:00+10s4119190 0.0 1006316
09:00+14s81479100 0.0 10041020
12:00+17ssw101880100 0.3 10021550
15:00+13sw61489100 3.7 1004642
18:00+12sw61290100 0.3 1006729
21:00+11ssw61295100 0.3 1008462